Spokane Felts, WA
on Friday, November 9, 2012

Friday
Previous Day Next Day
Daily Summary
 ActualAverageRecord
Temperature
Mean Temperature °F 39°F  
Max Temperature 34°F 47°F 56°F (2007)
Min Temperature 26°F 32°F 24°F (2003)
Degree Days
Heating Degree Days 35 26  
Month to date heating degree days 168 219  
Since 1 July heating degree days 727 956  
Cooling Degree Days 0 0  
Month to date cooling degree days 0 0  
Year to date cooling degree days 509 406  
Moisture
Dew Point 27°F   
Average Humidity 82    
Maximum Humidity 89    
Minimum Humidity 75    
Precipitation
Precipitation 0.10 in 0.07 in 0.37 in (2014)
Month to date precipitation 0.73 0.61  
Year to date precipitation 16.32 13.56  
Wind
Wind Speed 2 mph   
Max Wind Speed 8 mph   
Max Gust Speed 9 mph   
Visibility 7 miles   
Events Snow   

Key: T is trace of precipitation, MM is missing value
Source: NWS Daily Summary
Time(PST)TemperatureDew PointHumidity Pressure Visibility Wind DirectionWind SpeedGust SpeedPrecipitationEvents Conditions
12:01 AM 33.8°F 30.2°F 87% 29.73 in 3.0 miles Calm Calm - 0.00 in Snow Light Snow
12:47 AM 33.8°F 30.2°F 87% 29.73 in 10.0 miles East 4.6 mph - 0.02 in   Overcast
12:48 AM 33.1°F 30.0°F 89% 29.76 in 10.0 miles East 4.6 mph - 0.02 in   Overcast
1:37 AM 33.8°F 28.4°F 81% 29.74 in 5.0 miles ESE 3.5 mph - 0.00 in Snow Light Snow
1:53 AM 33.1°F 28.9°F 85% 29.78 in 2.0 miles Calm Calm - 0.00 in Snow Light Snow
2:01 AM 33.8°F 28.4°F 81% 29.75 in 1.5 miles ESE 4.6 mph - 0.00 in Snow Light Snow
2:10 AM 33.8°F 28.4°F 81% 29.75 in 3.0 miles East 3.5 mph - 0.00 in Snow Light Snow
2:28 AM 33.8°F 30.2°F 87% 29.75 in 5.0 miles Calm Calm - 0.00 in Snow Light Snow
2:53 AM 33.1°F 30.0°F 89% 29.78 in 4.0 miles Calm Calm - 0.00 in Snow Light Snow
3:03 AM 33.8°F 30.2°F 87% 29.75 in 7.0 miles Calm Calm - 0.01 in Snow Light Snow
3:53 AM 33.1°F 28.9°F 85% 29.79 in 4.0 miles ESE 4.6 mph - 0.02 in Snow Light Snow
4:53 AM 33.1°F 28.0°F 82% 29.81 in 6.0 miles SE 5.8 mph - 0.01 in Snow Light Snow
5:53 AM 32.0°F 28.0°F 85% 29.81 in 7.0 miles Calm Calm - 0.01 in   Overcast
6:53 AM 32.0°F 28.9°F 88% 29.83 in 4.0 miles Calm Calm - 0.01 in Snow Light Snow
7:53 AM 32.0°F 28.0°F 85% 29.85 in 4.0 miles SE 3.5 mph - 0.02 in Snow Light Snow
8:53 AM 33.1°F 27.0°F 78% 29.85 in 5.0 miles Calm Calm - 0.00 in Snow Light Snow
9:53 AM 32.0°F 28.0°F 85% 29.86 in 6.0 miles Calm Calm - 0.00 in Snow Light Snow
10:53 AM 33.1°F 27.0°F 78% 29.86 in 5.0 miles Calm Calm - 0.00 in Snow Light Snow
11:29 AM 33.8°F 26.6°F 75% 29.82 in 2.5 miles Calm Calm - 0.00 in Snow Light Snow
11:31 AM 33.8°F 26.6°F 75% 29.82 in 3.0 miles Calm Calm - 0.00 in Snow Light Snow
11:53 AM 33.1°F 27.0°F 78% 29.87 in 3.0 miles SE 4.6 mph - 0.00 in Snow Light Snow
12:53 PM 32.0°F 26.1°F 79% 29.87 in 7.0 miles SE 3.5 mph - 0.01 in   Overcast
1:53 PM 33.1°F 26.1°F 75% 29.87 in 10.0 miles Calm Calm - 0.00 in   Overcast
2:53 PM 32.0°F 27.0°F 82% 29.88 in 10.0 miles ESE 5.8 mph - 0.00 in   Overcast
3:53 PM 32.0°F 26.1°F 79% 29.88 in 10.0 miles East 4.6 mph - N/A   Overcast
4:53 PM 32.0°F 27.0°F 82% 29.89 in 10.0 miles East 3.5 mph - N/A   Overcast
5:53 PM 32.0°F 26.1°F 79% 29.91 in 10.0 miles East 3.5 mph - N/A   Overcast
6:26 PM 32.0°F 26.6°F 80% 29.85 in 10.0 miles ENE 6.9 mph - N/A   Overcast
6:53 PM 30.9°F 26.1°F 82% 29.91 in 10.0 miles ENE 5.8 mph - N/A   Overcast
7:53 PM 30.0°F 25.0°F 82% 29.91 in 10.0 miles Calm Calm - N/A   Overcast
8:00 PM 30.2°F 24.8°F 80% 29.87 in 10.0 miles Calm Calm - N/A   Overcast
8:53 PM 30.0°F 25.0°F 82% 29.92 in 10.0 miles Calm Calm - N/A   Scattered Clouds
9:53 PM 28.0°F 24.1°F 85% 29.93 in 10.0 miles Calm Calm - N/A   Clear
10:53 PM 27.0°F 23.0°F 85% 29.94 in 10.0 miles Calm Calm - N/A   Clear
11:53 PM 27.0°F 23.0°F 85% 29.95 in 9.0 miles Calm Calm - N/A   Mostly Cloudy
Moon Phase
Nov. 09 Nov. 13 Nov. 20 Nov. 28 Dec. 06
Sunrise:06:46 AM (PST) Moon Rise:01:31 AM (PST)11/9
Sunset:04:19 PM (PST) Moon Set:01:51 PM (PST)11/9

Copyright © 2014 The Weather Underground, Inc.